Weather History for KDPA - October, 2012

Change the Weather History Date:

Tuesday, October 2, 2012

  Actual Average Record
Temperature  
Mean Temperature 58 °F 57 °F  
Max Temperature 71 °F 69 °F 83 °F (2005)
Min Temperature 45 °F 46 °F 27 °F (2003)
Degree Days  
Heating Degree Days 7 9  
Month to date heating degree days 18 17  
Since 1 July heating degree days 175 128  
Cooling Degree Days 0 1  
Month to date cooling degree days 0 2  
Year to date cooling degree days 1089 805  
Growing Degree Days 8 (Base 50)    
Moisture  
Dew Point 47 °F    
Average Humidity 67    
Maximum Humidity 97    
Minimum Humidity 38    
Precipitation  
Precipitation 0.00 in 0.13 in 0.60 in (2002)
Month to date precipitation 0.00 0.26  
Year to date precipitation 15.57 29.18  
Sea Level Pressure  
Sea Level Pressure 29.86 in    
Wind  
Wind Speed 9 mph (NNE)    
Max Wind Speed 18 mph    
Max Gust Speed 24 mph    
Visibility 10 miles    
Events      
T = Trace of Precipitation, MM = Missing Value Source: NWS Daily Summary

Daily Weather History Graph

Daily Weather History Graph

Search for Another Location

Airport or City:

Trip Planner

Search our weather history database for the weather conditions in past years. The results will help you decide how hot, cold, wet, or windy it might be!

Date:

Astronomy

Oct. 02, 2012 Rise Set
Actual Time 6:51 AM CDT 6:32 PM CDT
Civil Twilight 6:23 AM CDT 6:59 PM CDT
Nautical Twilight 5:51 AM CDT 7:32 PM CDT
Astronomical Twilight 5:18 AM CDT 8:04 PM CDT
Moon 7:41 PM CDT 9:21 AM CDT
Length of Visible Light 12h 36m
Length of Day
11h 40m
Waning Gibbous, 94% of the Moon is Illuminated
Oct 2
Waning Gibbous
Oct 8
Last Quarter
Oct 15
New
Oct 21
First Quarter
Oct 29
Full

Hourly Weather History & Observations

Time (CDT) Temp. Dew Point Humidity Pressure Visibility Wind Dir Wind Speed Gust Speed Precip Events Conditions
12:52 AM 53.1 °F 48.0 °F 83% 29.82 in 10.0 mi ENE 4.6 mph - N/A   Clear
1:52 AM 48.9 °F 46.0 °F 90% 29.83 in 9.0 mi NNE 4.6 mph - N/A   Clear
2:52 AM 48.0 °F 46.0 °F 93% 29.83 in 9.0 mi NNE 3.5 mph - N/A   Clear
3:52 AM 48.9 °F 46.0 °F 90% 29.83 in 10.0 mi ENE 3.5 mph - N/A   Clear
4:52 AM 48.9 °F 46.9 °F 93% 29.84 in 10.0 mi North 8.1 mph - N/A   Clear
5:52 AM 50.0 °F 48.0 °F 93% 29.85 in 9.0 mi North 5.8 mph - N/A   Clear
6:52 AM 46.9 °F 46.0 °F 97% 29.86 in 6.0 mi NNE 4.6 mph - N/A   Clear
8:52 AM 55.9 °F 52.0 °F 87% 29.88 in 8.0 mi North 9.2 mph - N/A   Clear
9:52 AM 64.0 °F 51.1 °F 63% 29.88 in 10.0 mi NNE 12.7 mph - N/A   Clear
10:52 AM 66.0 °F 48.0 °F 52% 29.87 in 10.0 mi NNE 13.8 mph - N/A   Clear
11:52 AM 69.1 °F 46.0 °F 44% 29.87 in 10.0 mi NNE 15.0 mph - N/A   Clear
12:52 PM 70.0 °F 45.0 °F 41% 29.86 in 10.0 mi ENE 15.0 mph 19.6 mph N/A   Clear
1:52 PM 70.0 °F 45.0 °F 41% 29.85 in 10.0 mi NE 12.7 mph 24.2 mph N/A   Clear
2:52 PM 69.1 °F 44.1 °F 40% 29.84 in 10.0 mi North 13.8 mph 21.9 mph N/A   Clear
3:52 PM 69.1 °F 42.1 °F 38% 29.84 in 10.0 mi NE 11.5 mph - N/A   Clear
4:52 PM 66.9 °F 42.1 °F 40% 29.85 in 10.0 mi NNE 15.0 mph - N/A   Clear
5:52 PM 64.0 °F 43.0 °F 46% 29.86 in 10.0 mi NE 12.7 mph - N/A   Clear
6:52 PM 60.1 °F 44.1 °F 55% 29.87 in 10.0 mi NNE 6.9 mph - N/A   Clear
7:52 PM 55.9 °F 45.0 °F 67% 29.89 in 10.0 mi NNE 3.5 mph - N/A   Overcast
9:52 PM 60.1 °F 50.0 °F 69% 29.91 in 10.0 mi NNE 6.9 mph - N/A   Overcast
10:52 PM 59.0 °F 53.1 °F 81% 29.91 in 10.0 mi NNE 6.9 mph - N/A   Overcast
11:52 PM 60.1 °F 54.0 °F 80% 29.90 in 10.0 mi NNE 6.9 mph - N/A   Overcast